Regional Weather Roundup
Issued by NWS

Home | Current Version | Previous Version | Text Only | Print | Product List | Glossary On
Versions: 1 2 3 4 5 6 7 8 9 10 11 12 13 14 15 16 17 18 19 20 21 22 23 24 25 26 27 28 29 30 31 32 33 34 35 36 37 38 39 40 41 42 43 44 45 46 47 48 49 50
000
ASUS43 KDTX 231210
RWRMI
MICHIGAN HOURLY REGIONAL WEATHER ROUNDUP
NATIONAL WEATHER SERVICE DETROIT/PONTIAC MI
ISSUED BY NATIONAL WEATHER SERVICE GRAND RAPIDS MI
800 AM EDT WED MAY 23 2018

NOTE: "FAIR" INDICATES FEW OR NO CLOUDS BELOW 12,000 FEET WITH NO
SIGNIFICANT WEATHER AND/OR OBSTRUCTION TO VISIBILITY.

MIZ047>049-052>055-059>063-066>070-074>076-081>083-231300-
SOUTHEAST LOWER MICHIGAN

CITY           SKY/WX    TMP DP  RH WIND       PRES   REMARKS
ADRIAN         FAIR      58  55  90 N8        30.17R
6HR MIN TEMP:  53; 6HR MAX TEMP:  58;

ALMA           FAIR      54  54 100 CALM      30.17R
6HR MIN TEMP:  45; 6HR MAX TEMP:  54;

ANN ARBOR      FAIR      58  56  93 NW5       30.15R
BAD AXE        PTSUNNY   54  54 100 W3        30.15R FOG
6HR MIN TEMP:  40; 6HR MAX TEMP:  54;

DETROIT CITY   FAIR      58  54  86 NW3       30.15R
6HR MIN TEMP:  49; 6HR MAX TEMP:  58;

DETROIT        FAIR      59  54  83 NW7       30.15R
6HR MIN TEMP:  53; 6HR MAX TEMP:  59;

FLINT          FOG       52  52 100 CALM      30.16R VSB 3/4
6HR MIN TEMP:  46; 6HR MAX TEMP:  52;

GROSSE ILE     FAIR      57  56  95 NW5       30.14R
6HR MIN TEMP:  51; 6HR MAX TEMP:  57;

HILLSDALE      FAIR      54  54 100 NW3       30.17R
HOWELL         FAIR      54  54  99 CALM      30.17R FOG
6HR MIN TEMP:  47; 6HR MAX TEMP:  54;


CITY           SKY/WX    TMP DP  RH WIND       PRES   REMARKS
JACKSON        FAIR      54  53  97 W3        30.17R
6HR MIN TEMP:  48; 6HR MAX TEMP:  54;

LANSING        FAIR      53  52  96 W5        30.17R
6HR MIN TEMP:  49; 6HR MAX TEMP:  54;

MASON          FAIR      55  52  90 CALM      30.17R
6HR MIN TEMP:  51; 6HR MAX TEMP:  55;

MONROE         FAIR      57  55  93 N5        30.15R
6HR MIN TEMP:  51; 6HR MAX TEMP:  57;

MT. CLEMENS    FOG       54  54 100 CALM      30.13R VSB 1/4
6HR MIN TEMP:  46; 6HR MAX TEMP:  53;

PONTIAC        PTSUNNY   55  54  96 NW7       30.15R FOG
6HR MIN TEMP:  53; 6HR MAX TEMP:  55;

PORT HOPE        N/A     58  52  80 W6        30.11R
6HR MIN TEMP:  48; 6HR MAX TEMP:  58;

PORT HURON     FOG       48  46  93 CALM      30.14R VSB 1/4
TRI CITIES     FAIR      55  53  93 SW3       30.16R
6HR MIN TEMP:  50; 6HR MAX TEMP:  55;

YPSILANTI      FAIR      61  55  81 NW7       30.16R
6HR MIN TEMP:  54; 6HR MAX TEMP:  61;

$$
MIZ043>046-050>051-056>058-064>065-071>073-077>080-231300-
SOUTHWEST LOWER MICHIGAN

CITY           SKY/WX    TMP DP  RH WIND       PRES   REMARKS
BATTLE CREEK   FAIR      52  51  97 CALM      30.17R
6HR MIN TEMP:  48; 6HR MAX TEMP:  52;

BENTON HARBOR  FAIR      49  48  97 CALM      30.19R
6HR MIN TEMP:  43; 6HR MAX TEMP:  49;

BIG RAPIDS     FAIR      47  46  95 CALM      30.16R
6HR MIN TEMP:  43; 6HR MAX TEMP:  49;

COLDWATER      FAIR      55  55 100 CALM      30.17R
6HR MIN TEMP:  50; 6HR MAX TEMP:  55;

HOLLAND        FOG       48  47  96 CALM      30.19R VSB 1/4
6HR MIN TEMP:  45; 6HR MAX TEMP:  48;

GRAND RAPIDS   FOG       48  48 100 SW3       30.18R VSB 1/8
6HR MIN TEMP:  48; 6HR MAX TEMP:  49;

KALAMAZOO      FAIR      53  50  89 CALM      30.18R
6HR MIN TEMP:  46; 6HR MAX TEMP:  53;

MARSHALL       FAIR      53  52  95 CALM      30.17R
6HR MIN TEMP:  47; 6HR MAX TEMP:  53;

MOUNT PLEASANT FAIR      56  55  94 W5        30.16R
6HR MIN TEMP:  49; 6HR MAX TEMP:  56;

MUSKEGON       FOG       48  46  93 SW5       30.19R VSB 1/8
6HR MIN TEMP:  46; 6HR MAX TEMP:  49;

STURGIS        FAIR      55  53  92 CALM      30.17R
6HR MIN TEMP:  49; 6HR MAX TEMP:  55;

$$
MIZ016>042-231300-
NORTHERN LOWER MICHIGAN

CITY           SKY/WX    TMP DP  RH WIND       PRES   REMARKS
ALPENA         FAIR      56  50  80 W7        30.12R
6HR MIN TEMP:  49; 6HR MAX TEMP:  56;

BEAVER ISLAND  FAIR      53  53  99 W7        30.14R FOG
6HR MIN TEMP:  41; 6HR MAX TEMP:  54;

BELLAIRE       FAIR      49  47  95 CALM      30.17R
6HR MIN TEMP:  40; 6HR MAX TEMP:  49;

CADILLAC       FAIR      53  52  95 CALM      30.17R
CHARLEVOIX     FAIR      52  52 100 SE3       30.18R
6HR MIN TEMP:  44; 6HR MAX TEMP:  52;

GAYLORD        FAIR      52  49  89 CALM      30.15R
6HR MIN TEMP:  42; 6HR MAX TEMP:  52;

HOUGHTON LAKE  FAIR      53  51  93 CALM      30.17R
6HR MIN TEMP:  41; 6HR MAX TEMP:  53;

MANISTEE       FAIR      48  48 100 E3        30.17R
OSCODA         FAIR      55  51  85 W3        30.12R
6HR MIN TEMP:  45; 6HR MAX TEMP:  55;

PELLSTON       FAIR      52  48  86 CALM      30.14R
6HR MIN TEMP:  37; 6HR MAX TEMP:  50;

TRAVERSE CITY  FAIR      57  51  80 CALM      30.14R
6HR MIN TEMP:  46; 6HR MAX TEMP:  57;

LUDINGTON      FAIR      48  48 100 CALM      30.17R FOG
6HR MIN TEMP:  41; 6HR MAX TEMP:  48;

$$
MIZ007>008-015-231300-
EASTERN UPPER MICHIGAN

CITY           SKY/WX    TMP DP  RH WIND       PRES   REMARKS
MACKINAC ISLAN FAIR      53  52  99 W5        30.12R
6HR MIN TEMP:  47; 6HR MAX TEMP:  53;

NEWBERRY       FAIR      53  51  92 CALM      30.13R
6HR MIN TEMP:  41; 6HR MAX TEMP:  53;

S. S. MARIE    FAIR      53  44  71 CALM      30.12R
6HR MIN TEMP:  46; 6HR MAX TEMP:  53;

$$
MIZ004>006-011>014-085-231300-
CENTRAL UPPER MICHIGAN

CITY           SKY/WX    TMP DP  RH WIND       PRES   REMARKS
MANISTIQUE     FAIR      47  46  94 S6        30.13R
6HR MIN TEMP:  37; 6HR MAX TEMP:  47;

ESCANABA       FAIR      53  47  79 CALM      30.15R
6HR MIN TEMP:  41; 6HR MAX TEMP:  53;

MENOMINEE      FAIR      56  51  84 CALM      30.16R
6HR MIN TEMP:  48; 6HR MAX TEMP:  56;

SAWYER-GWINN   SUNNY     50  41  71 CALM      30.14R
$$
MIZ001>003-009>011-084-231300-
WESTERN UPPER MICHIGAN

CITY           SKY/WX    TMP DP  RH WIND       PRES   REMARKS
IRON MOUNTAIN  FAIR      50  45  83 NW3       30.15R
6HR MIN TEMP:  43; 6HR MAX TEMP:  53;

HOUGHTON       FAIR      65  52  62 W9        30.10R
6HR MIN TEMP:  48; 6HR MAX TEMP:  65;

COPPER HARBOR    N/A     47  39  74 NE5       30.10R
6HR MIN TEMP:  45; 6HR MAX TEMP:  58;

IRONWOOD       FAIR      55  52  89 CALM      30.15R
6HR MIN TEMP:  46; 6HR MAX TEMP:  55; 6HR PCP: TRACE;

$$

ABBREVIATIONS USED IN REMARKS
   TC - TEMPERATURE IN CELSIUS
  WCI - WIND CHILL INDEX
   HX - HEAT INDEX
  VSB - VISIBILITY





USA.gov is the U.S. government's official web portal to all federal, state and local government web resources and services.